Regional Weather Roundup
Issued by NWS Bismarck, ND

Home | Current Version | Previous Version | Text Only | Print | Product List | Glossary On
Versions: 1 2 3 4 5 6 7 8 9 10 11 12 13 14 15 16 17 18 19 20 21 22 23 24 25 26 27 28 29 30 31 32 33 34 35 36 37 38 39 40 41 42 43 44 45 46 47 48 49 50
000
ASUS43 KBIS 220920
RWRBIS

NWR BROADCAST TEXT
NATIONAL WEATHER SERVICE BISMARCK ND
400 AM CDT WED OCT 22 2014

NOTE: "FAIR" INDICATES FEW OR NO CLOUDS BELOW 12,000 FEET WITH NO
SIGNIFICANT WEATHER AND/OR OBSTRUCTIONS TO VISIBILITY.


CITY           SKY/WX    TMP DP  RH WIND       PRES   REMARKS
WILLISTON      MOCLDY    54  46  74 W8        29.69R
MINOT          PTCLDY    59  47  64 SW14      29.63R
MINOT AFB      PTCLDY    58  48  69 SW12      29.62R
BISMARCK       PTCLDY    58  48  69 S7        29.68S
DICKINSON      PTCLDY    53  45  74 W20       29.73R
GARRISON         N/A     53  49  86 CALM      29.65F
HETTINGER ARPT CLEAR     51  44  77 W12       29.78R
JAMESTOWN      PTCLDY    59  42  53 S17G25    29.75F
BEACH            N/A     50  48  93 W17G26    29.80R
CARRINGTON     FAIR      57  46  67 S21G28    29.72R
CROSBY         FAIR      55  43  62 W18G24    29.65S
HARVEY         FAIR      57  45  62 S9        29.68R
HAZEN          FAIR      54  45  71 CALM      29.68R
LINTON         FAIR      55  46  71 SE12      29.73R
MANDAN         FAIR      57  48  72 S10       29.69F
OAKES            N/A     59  41  51 S23G30    29.80S HAZE
RUGBY          FAIR      55  43  62 S12G22    29.65F
STANLEY        FAIR      50  46  87 SW6       29.67R
TIOGA          FAIR      50  48  93 W10       29.70R
$$

CITY           SKY/WX    TMP DP  RH WIND       PRES   REMARKS
GRAND FORKS    CLEAR     54  42  64 S23G30    29.81F
GRAND FORKS AF CLEAR     55  42  63 S23G31    29.79F
DEVILS LAKE    CLEAR     57  43  58 S18G25    29.70R
FARGO          PTCLDY    55  41  59 SE25G35   29.87F
CANDO          FAIR      55  45  67 S16G23    29.69S
CAVALIER       FAIR      55  41  58 S18G30    29.76F
GRAFTON        FAIR      54  41  62 S23G37    29.78F
GWINNER        SUNNY     61  41  48 S16       29.84F
LANGDON        FAIR      54  41  62 S21G26    29.73R
ROLLA          FAIR      54  43  66 S14       29.68F
WALHALLA         N/A     55  41  58 S20G35    29.72F
$$

CITY           SKY/WX    TMP DP  RH WIND       PRES   REMARKS
ABERDEEN       CLEAR     60  39  45 S21G31    29.82F
MOBRIDGE       MOCLDY    62  52  69 SE9       29.72R
BUFFALO          N/A     51  39  63 W21       29.76R
RAPID CITY     CLOUDY    59  39  47 N20G29    29.86R
GLASGOW        PTCLDY    48  40  73 W13       29.77R
SIDNEY         MOCLDY    54  45  71 W24G32    29.73R
WOLF POINT     PTCLDY    50  45  83 W14       29.77R
GLENDIVE       PTCLDY    50  45  81 W14       29.82R
MILES CITY     LGT RAIN  48  39  71 W12       29.88R
BAKER          CLOUDY    50  44  80 W13G22    29.84R
$$

CITY           SKY/WX    TMP DP  RH WIND       PRES   REMARKS
BILLINGS       CLEAR     48  29  47 W23G29    29.95R
GREAT FALLS    PTCLDY    42  34  73 SW15      29.92S
REGINA         MOCLDY    50  43  76 W6        29.60R
ESTEVAN        PTCLDY    52  43  71 W10G18    29.62R
$$




USA.gov is the U.S. government's official web portal to all federal, state and local government web resources and services.